Regional Weather Roundup
Issued by NWS Charleston, SC

Current Version | Previous Version | Text Only | Print | Product List | Glossary On
Versions: 1 2 3 4 5 6 7 8 9 10 11 12 13 14 15 16 17 18 19 20 21 22 23 24 25 26 27 28 29 30 31 32 33 34 35 36 37 38 39 40 41 42 43 44 45 46 47 48 49 50
000
ASUS42 KCHS 221625
RWRCHS

REGIONAL WEATHER ROUNDUP
NATIONAL WEATHER SERVICE CHARLESTON SC
1200 PM EDT TUE JUL 22 2014

NOTE: "FAIR" INDICATES FEW OR NO CLOUDS BELOW 12,000 FEET WITH NO
SIGNIFICANT WEATHER AND/OR OBSTRUCTIONS TO VISIBILITY.

NOT ALL STATIONS ARE QUALITY CONTROLLED BY THE NATIONAL
WEATHER SERVICE. USE DATA WITH CAUTION...ESPECIALLY
DEWPOINT OBSERVATIONS.

SCZ027-030-031-034>040-042>050-221700-
...SOUTH CAROLINA...

CITY           SKY/WX    TMP DP  RH WIND       PRES   REMARKS
N CHARLESTON   PTSUNNY   84  73  69 E6        30.11S HX  90
WATERFRONT PRK   N/A     81 N/A N/A E5          N/A
FORT JOHNSON   NOT AVBL
MOUNT PLEASANT FAIR      82  75  78 CALM      30.11S
JOHNS ISLAND   MOSUNNY   82  64  54 E5        30.11S
PINOPOLIS        N/A     82  77  83 NE2       30.04F HX  91
MONCKS CORNER    N/A     86  79  79 E5        30.11S HX  99
SUMMERVILLE    FAIR      86  75  70 E3        30.11F HX  95
BEAUFORT MCAS  PTSUNNY   84  72  67 CALM      30.10F
BEAUFORT ARPT  PTSUNNY   84  75  74 NW5       30.10S HX  92
HILTON HEAD IS PTSUNNY   84  75  74 N6        30.12S HX  92
GEORGETOWN     NOT AVBL
WALTERBORO     PTSUNNY   88  70  55 SE5       30.11F HX  92
ORANGEBURG     PTSUNNY   84  72  67 VRB3      30.11F
BARNWELL       FAIR      82  73  74 E3        30.12F
AIKEN          FAIR      81  75  83 CALM      30.16F
MANNING        PTSUNNY   86  81  84 MISG      30.11F HX 102
KINGSTREE      NOT AVBL
COLUMBIA       PTSUNNY   82  73  74 E5        30.13S
SUMTER         CLOUDY    79  75  89 NE6       30.12F
FLORENCE       PTSUNNY   81  74  79 CALM      30.14F
MYRTLE BEACH   PTSUNNY   82  73  74 N9        30.12
N MYRTLE BEACH PTSUNNY   83  74  74 N6        30.11F

$$

GAZ063-065-086>088-099>101-113>116-118-119-134-136>141-150-221700-
...GEORGIA...

CITY           SKY/WX    TMP DP  RH WIND       PRES   REMARKS
SAVANNAH ARPT  PTSUNNY   86  72  62 CALM      30.11S HX  92
HUNTER AAF     MOSUNNY   84  73  70 VRB2      30.09S HX  90
FORT STEWART   PTSUNNY   86  73  66 CALM      30.10S HX  93
STATESBORO     NOT AVBL
SYLVANIA       CLOUDY    83  76  80 N6        30.12F HX  90
CLAXTON        PTSUNNY   86  77  74 CALM      30.11S HX  97
THOMSON        CLOUDY    78  78  97 NE3       30.17F
AUGUSTA-BUSH   MOSUNNY   81  72  74 S6        30.11F
AUGUSTA-DANIEL MOSUNNY   82  72  71 CALM      30.13F
SWAINSBORO     CLOUDY    84  79  84 NW5       30.12F HX  96
VIDALIA          N/A     82  73  74 CALM      30.12S
ALMA           PTSUNNY   86  70  58 CALM      30.10F HX  90
WAYCROSS       CLOUDY    89  74  61 NW5       30.09F HX  97
JESUP          NOT AVBL
BRUNSWICK      MOSUNNY   86  70  58 CALM      30.11S HX  90
SAINT SIMONS   SUNNY     85  71  63 VRB3      30.10F HX  90

$$

SCZ027-028-034-036>038-045-046-048>050-GAZ119-141-221700-
...LAKE AND SUPPLEMENTAL COASTAL OBSERVATIONS...

STATION/POSITION TIME  TEMP    WIND        PRES    WAVE   SWELL
                       AIR SEA DIR/SP/G            HT/PER HT/PER/DIR
                 (UTC) (F)     (DEG/KT/KT) (MB)    (FT/S) (FT/S/D)
UPR LAKE MARION  NOT AVBL
WINYAH BAY       1600   81     100/  6     1020.0S
LAKE MURRAY      1600   76      30/  2/  5 1020.0S
ACE BASIN NERRS  1600   87        CALM     1020.0S
FORT PULASKI     1600   81     270/  4/  5 1019.7F
SAPELO ISLAND    1600   84      20/  3     1020.0S

$$

ANZ835-935-AMZ111-154-330-350-352-354-374-450-454-472-221700-
...C-MAN AND BUOY OBSERVATIONS...

STATION/POSITION TIME  TEMP    WIND        PRES    WAVE   SWELL
                       AIR SEA DIR/SP/G            HT/PER HT/PER/DIR
                 (UTC) (F)     (DEG/KT/KT) (MB)    (FT/S) (FT/S/D)
FOLLY BEACH CMAN 1600   78      80/  8/  8 1020.1S
BUOY 41004       1600   78 82  350/ 10/ 10 1019.1F   3/ 5   3/ 5
BUOY 41008       1600   79 84  350/  8/ 10 1019.5R   2/ 8   2/120/ 8
5E ST. MARYS GA  1600      84                N/A     2/ 7
FRYING PAN BUOY  NOT AVBL
BUOY 41025       1600          VRB 14/ 16  1021.4R   4/ 8   2/130/ 8
CAPE LOOKOUT NC  1600   78     160/ 13/ 15 1020.9R
BUOY 41002       1543   82 82  190/ 12/ 14 1022.1R   4/ 8   3/120/ 8
BUOY 41010       1600   82 83  180/ 10/ 14 1019.4R   5/ 7   5/130/ 7
BUOY 41012       NOT AVBL
ST AUGUSTINE FL  1600   81      20/  9/ 10 1019.7S
CAPERS NEARSHORE 1500   75      10/ 10/ 12   N/A
FRIPP NEARSHORE  NOT AVBL


$$


USA.gov is the U.S. government's official web portal to all federal, state and local government web resources and services.